EN

Hourly Weather Kyzylsay

Today, 25 July, Sunday

Time Temperature Precipitation Wind Pressure Humidity
00:00 +27°C° 0 mm 3 mps 683 mmHg 27%
01:00 +27°C° 0 mm 3 mps 683 mmHg 25%
02:00 +27°C° 0 mm 3 mps 683 mmHg 24%
03:00 +26°C° 0 mm 3 mps 683 mmHg 23%
04:00 +26°C° 0 mm 3 mps 683 mmHg 23%
05:00 +26°C° 0 mm 2 mps 683 mmHg 22%
06:00 +28°C° 0 mm 2 mps 683 mmHg 21%
07:00 +31°C° 0 mm 2 mps 684 mmHg 19%
08:00 +33°C° 0 mm 1 mps 684 mmHg 18%
09:00 +36°C° 0 mm 2 mps 684 mmHg 17%
10:00 +37°C° 0 mm 3 mps 684 mmHg 16%
11:00 +38°C° 0 mm 3 mps 685 mmHg 16%
12:00 +39°C° 0 mm 3 mps 684 mmHg 16%
13:00 +40°C° 0 mm 3 mps 684 mmHg 15%
14:00 +40°C° 0 mm 3 mps 684 mmHg 15%
15:00 +41°C° 0 mm 4 mps 684 mmHg 15%
16:00 +41°C° 0 mm 4 mps 684 mmHg 15%
17:00 +40°C° 0 mm 4 mps 685 mmHg 16%
18:00 +36°C° 0 mm 3 mps 685 mmHg 19%
19:00 +33°C° 0 mm 3 mps 685 mmHg 23%
20:00 +29°C° 0 mm 2 mps 684 mmHg 26%
21:00 +29°C° 0 mm 2 mps 684 mmHg 26%
22:00 +28°C° 0 mm 2 mps 684 mmHg 27%
23:00 +27°C° 0 mm 3 mps 684 mmHg 27%

Tomorrow, 26 July, Monday

Time Temperature Precipitation Wind Pressure Humidity
00:00 +27°C° 0 mm 3 mps 684 mmHg 27%
01:00 +27°C° 0 mm 3 mps 683 mmHg 27%
02:00 +27°C° 0 mm 3 mps 683 mmHg 27%
03:00 +27°C° 0 mm 3 mps 683 mmHg 27%
04:00 +27°C° 0 mm 3 mps 683 mmHg 27%
05:00 +27°C° 0 mm 3 mps 682 mmHg 26%
06:00 +29°C° 0 mm 2 mps 683 mmHg 24%
07:00 +31°C° 0 mm 2 mps 683 mmHg 21%
08:00 +34°C° 0 mm 1 mps 683 mmHg 18%
09:00 +36°C° 0 mm 2 mps 683 mmHg 18%
10:00 +37°C° 0 mm 2 mps 683 mmHg 17%
11:00 +39°C° 0 mm 3 mps 683 mmHg 16%
12:00 +39°C° 0 mm 3 mps 683 mmHg 15%
13:00 +40°C° 0 mm 3 mps 683 mmHg 15%
14:00 +42°C° 0 mm 3 mps 683 mmHg 14%
15:00 +42°C° 0 mm 4 mps 682 mmHg 14%
16:00 +41°C° 0 mm 4 mps 682 mmHg 14%
17:00 +41°C° 0 mm 4 mps 682 mmHg 14%
18:00 +37°C° 0 mm 3 mps 682 mmHg 17%
19:00 +35°C° 0 mm 3 mps 682 mmHg 20%
20:00 +31°C° 0 mm 3 mps 682 mmHg 22%
21:00 +30°C° 0 mm 3 mps 682 mmHg 23%
22:00 +30°C° 0 mm 3 mps 682 mmHg 23%
23:00 +29°C° 0 mm 3 mps 682 mmHg 24%

Day after tomorrow, 27 July, Tuesday

Time Temperature Precipitation Wind Pressure Humidity
00:00 +28°C° 0 mm 4 mps 681 mmHg 26%
01:00 +28°C° 0 mm 4 mps 681 mmHg 28%
02:00 +27°C° 0 mm 4 mps 681 mmHg 30%
03:00 +27°C° 0 mm 4 mps 681 mmHg 32%
04:00 +26°C° 0 mm 3 mps 681 mmHg 34%
05:00 +25°C° 0 mm 3 mps 681 mmHg 35%
06:00 +27°C° 0 mm 3 mps 682 mmHg 37%
07:00 +28°C° 0 mm 3 mps 682 mmHg 38%
08:00 +29°C° 0 mm 3 mps 682 mmHg 39%
09:00 +30°C° 0 mm 3 mps 682 mmHg 38%
10:00 +31°C° 0 mm 3 mps 682 mmHg 37%
11:00 +33°C° 0 mm 4 mps 682 mmHg 37%
12:00 +34°C° 0 mm 4 mps 682 mmHg 36%
13:00 +35°C° 0 mm 4 mps 682 mmHg 35%
14:00 +36°C° 0 mm 4 mps 682 mmHg 34%
15:00 +35°C° 0 mm 4 mps 681 mmHg 35%
16:00 +35°C° 0 mm 4 mps 681 mmHg 35%
17:00 +35°C° 0 mm 4 mps 681 mmHg 36%
18:00 +33°C° 0 mm 3 mps 681 mmHg 39%
19:00 +30°C° 0 mm 3 mps 681 mmHg 43%
20:00 +28°C° 0 mm 3 mps 681 mmHg 46%
21:00 +26°C° 0 mm 2 mps 681 mmHg 47%
22:00 +25°C° 0 mm 2 mps 681 mmHg 48%
23:00 +24°C° 0 mm 2 mps 680 mmHg 50%

28 July, Wednesday

Time Temperature Precipitation Wind Pressure Humidity
00:00 +24°C° 0 mm 2 mps 680 mmHg 49%
01:00 +24°C° 0 mm 2 mps 680 mmHg 48%
02:00 +23°C° 0 mm 2 mps 679 mmHg 47%
03:00 +23°C° 0 mm 2 mps 679 mmHg 46%
04:00 +23°C° 0 mm 2 mps 679 mmHg 46%
05:00 +23°C° 0 mm 2 mps 679 mmHg 45%
06:00 +24°C° 0 mm 2 mps 679 mmHg 42%
07:00 +26°C° 0 mm 2 mps 680 mmHg 38%
08:00 +28°C° 0 mm 2 mps 680 mmHg 34%
09:00 +29°C° 0 mm 2 mps 680 mmHg 32%
10:00 +31°C° 0 mm 3 mps 680 mmHg 31%
11:00 +33°C° 0 mm 3 mps 680 mmHg 30%
12:00 +34°C° 0 mm 3 mps 680 mmHg 29%
13:00 +35°C° 0 mm 3 mps 680 mmHg 28%
14:00 +36°C° 0 mm 3 mps 680 mmHg 27%
15:00 +36°C° 0 mm 3 mps 680 mmHg 27%
16:00 +36°C° 0 mm 4 mps 679 mmHg 27%
17:00 +36°C° 0 mm 4 mps 679 mmHg 28%
18:00 +33°C° 0 mm 3 mps 679 mmHg 31%
19:00 +30°C° 0 mm 3 mps 679 mmHg 34%
20:00 +27°C° 0 mm 2 mps 679 mmHg 37%
21:00 +26°C° 0 mm 2 mps 679 mmHg 39%
22:00 +25°C° 0 mm 2 mps 679 mmHg 40%
23:00 +24°C° 0 mm 2 mps 679 mmHg 42%

29 July, Thursday

Time Temperature Precipitation Wind Pressure Humidity
00:00 +24°C° 0 mm 2 mps 679 mmHg 41%
01:00 +24°C° 0 mm 2 mps 679 mmHg 40%
02:00 +23°C° 0 mm 2 mps 679 mmHg 40%
03:00 +23°C° 0 mm 2 mps 679 mmHg 40%
04:00 +23°C° 0 mm 2 mps 679 mmHg 40%
05:00 +22°C° 0 mm 1 mps 679 mmHg 40%
06:00 +24°C° 0 mm 2 mps 679 mmHg 36%
07:00 +26°C° 0 mm 2 mps 680 mmHg 32%
08:00 +28°C° 0 mm 2 mps 680 mmHg 27%
09:00 +30°C° 0 mm 2 mps 680 mmHg 25%
10:00 +31°C° 0 mm 3 mps 680 mmHg 23%
11:00 +33°C° 0 mm 3 mps 680 mmHg 21%
12:00 +34°C° 0 mm 3 mps 680 mmHg 20%
13:00 +35°C° 0 mm 3 mps 680 mmHg 20%
14:00 +36°C° 0 mm 4 mps 680 mmHg 19%
15:00 +36°C° 0 mm 4 mps 680 mmHg 20%
16:00 +35°C° 0 mm 4 mps 680 mmHg 20%
17:00 +35°C° 0 mm 4 mps 680 mmHg 21%
18:00 +33°C° 0 mm 3 mps 680 mmHg 23%
19:00 +29°C° 0 mm 3 mps 680 mmHg 26%
20:00 +26°C° 0 mm 2 mps 680 mmHg 29%
21:00 +26°C° 0 mm 2 mps 680 mmHg 30%
22:00 +25°C° 0 mm 2 mps 680 mmHg 32%
23:00 +24°C° 0 mm 2 mps 680 mmHg 34%

30 July, Friday

Time Temperature Precipitation Wind Pressure Humidity
00:00 +23°C° 0 mm 2 mps 680 mmHg 34%
01:00 +23°C° 0 mm 2 mps 680 mmHg 34%
02:00 +23°C° 0 mm 2 mps 680 mmHg 34%
03:00 +21°C° 0 mm 2 mps 680 mmHg 35%
04:00 +21°C° 0 mm 2 mps 680 mmHg 36%
05:00 +20°C° 0 mm 2 mps 681 mmHg 36%
06:00 +23°C° 0 mm 2 mps 682 mmHg 32%
07:00 +24°C° 0 mm 3 mps 683 mmHg 28%
08:00 +26°C° 0 mm 3 mps 684 mmHg 24%
09:00 +26°C° 0 mm 3 mps 684 mmHg 23%
10:00 +27°C° 0 mm 4 mps 684 mmHg 22%
11:00 +28°C° 0 mm 5 mps 685 mmHg 22%
12:00 +28°C° 0 mm 5 mps 685 mmHg 25%
13:00 +27°C° 0 mm 5 mps 685 mmHg 27%
14:00 +27°C° 0 mm 6 mps 685 mmHg 30%
15:00 +25°C° 0.3 mm 4 mps 685 mmHg 38%
16:00 +24°C° 0.3 mm 3 mps 685 mmHg 46%
17:00 +21°C° 0.3 mm 2 mps 685 mmHg 54%
18:00 +20°C° 0.1 mm 2 mps 685 mmHg 58%
19:00 +19°C° 0.1 mm 2 mps 685 mmHg 62%
20:00 +18°C° 0.1 mm 2 mps 685 mmHg 66%
21:00 +18°C° 0 mm 2 mps 685 mmHg 65%
22:00 +18°C° 0 mm 2 mps 685 mmHg 64%
23:00 +18°C° 0 mm 2 mps 685 mmHg 62%
Show more